Location: Street
(51.1247°N, 2.7429°W)
Time: 21:49:20
(UTC+00:00)

Explorer 7 - All Passes

Search period start: 05 December 2020 00:00
Search period end: 15 December 2020 00:00
Orbit: 484 x 678 km, 50.3° (Epoch: 04 December)

Date Brightness Start Highest point End Pass type
(mag) Time Alt. Az. Time Alt. Az. Time Alt. Az.
05 Dec - 00:02:30 10° SW 00:06:50 36° SSE 00:10:58 10° E night (unlit)
05 Dec - 01:42:28 10° WSW 01:47:07 74° S 01:51:30 10° E night (unlit)
05 Dec - 03:23:07 10° W 03:27:38 75° S 03:31:51 10° ESE visible
05 Dec - 05:03:54 10° W 05:07:50 33° SSW 05:11:32 10° SE visible
05 Dec - 22:28:37 10° S 22:31:28 16° SE 22:34:15 10° E night (unlit)
06 Dec - 00:06:46 10° SW 00:11:20 46° SSE 00:15:40 10° E night (unlit)
06 Dec - 01:47:04 10° W 01:51:44 80° S 01:56:07 10° E night (unlit)
06 Dec - 03:27:45 10° W 03:32:14 65° SSW 03:36:25 10° ESE visible
06 Dec - 05:08:42 10° W 05:12:15 25° SW 05:15:36 10° SSE visible
06 Dec - 22:32:08 10° SSW 22:35:49 22° SE 22:39:24 10° E night (unlit)
07 Dec - 00:11:11 10° WSW 00:15:52 58° SSE 00:20:18 10° E night (unlit)
07 Dec - 01:51:41 10° W 01:56:21 82° S 02:00:44 10° E night (unlit)
07 Dec - 03:32:23 10° W 03:36:47 53° SSW 03:40:54 10° SE visible
07 Dec - 05:13:42 10° W 05:16:36 18° SW 05:19:24 10° S visible
07 Dec - 22:36:03 10° SSW 22:40:14 30° SSE 22:44:17 10° E night (unlit)
08 Dec - 00:15:41 10° WSW 00:20:26 68° SSE 00:24:56 10° E night (unlit)
08 Dec - 01:56:18 10° W 02:00:59 80° S 02:05:20 10° E night (unlit)
08 Dec - 03:37:02 10° W 03:41:18 42° SSW 03:45:16 10° SE visible
08 Dec - 05:19:12 10° WSW 05:20:54 12° SW 05:22:34 10° SSW visible
08 Dec - 21:03:03 10° SSE 21:04:58 12° SE 21:06:51 10° ESE night (unlit)
08 Dec - 22:40:11 10° SW 22:44:41 39° SSE 22:49:01 10° E night (unlit)
09 Dec - 00:20:15 10° WSW 00:25:01 77° S 00:29:33 10° E night (unlit)
09 Dec - 02:00:56 10° W 02:05:34 73° SSW 02:09:55 10° ESE night (unlit)
09 Dec - 03:41:45 10° W 03:45:45 32° SSW 03:49:31 10° SSE night (unlit)
09 Dec - 21:06:02 10° S 21:09:16 18° SE 21:12:27 10° E night (unlit)
09 Dec - 22:44:30 10° SW 22:49:11 50° SSE 22:53:41 10° E night (unlit)
10 Dec - 00:24:51 10° W 00:29:38 82° S 00:34:09 10° E night (unlit)
10 Dec - 02:05:33 10° W 02:10:09 63° SSW 02:14:27 10° ESE night (unlit)
10 Dec - 03:46:34 10° W 03:50:08 24° SW 03:53:32 10° SSE night (unlit)
10 Dec - 21:09:42 10° SSW 21:13:37 25° SE 21:17:28 10° E night (unlit)
10 Dec - 22:48:56 10° WSW 22:53:43 61° SSE 22:58:18 10° E night (unlit)
11 Dec - 00:29:27 10° W 00:34:15 82° S 00:38:46 10° E night (unlit)
11 Dec - 02:10:10 10° W 02:14:41 51° SSW 02:18:54 10° SE night (unlit)
11 Dec - 03:51:36 10° W 03:54:28 17° SW 03:57:13 10° S night (unlit)
11 Dec - 21:13:41 10° SSW 21:18:02 33° SSE 21:22:17 10° E night (unlit)
11 Dec - 22:53:27 10° WSW 22:58:17 71° SSE 23:02:55 10° E night (unlit)
12 Dec - 00:34:05 10° W 00:38:51 78° S 00:43:21 10° ESE night (unlit)
12 Dec - 02:14:50 10° W 02:19:10 40° SSW 02:23:15 10° SE night (unlit)
12 Dec - 03:57:17 10° WSW 03:58:44 11° SW 04:00:10 10° SSW night (unlit)
12 Dec - 19:40:15 10° SSE 19:42:43 14° SE 19:45:10 10° ESE night (unlit)
12 Dec - 21:17:52 10° SW 21:22:29 43° SSE 21:26:58 10° E night (unlit)
12 Dec - 22:58:01 10° WSW 23:02:52 79° S 23:07:32 10° E night (unlit)
13 Dec - 00:38:41 10° W 00:43:26 71° SSW 00:47:55 10° ESE night (unlit)
13 Dec - 02:19:33 10° W 02:23:36 30° SSW 02:27:25 10° SSE night (unlit)
13 Dec - 19:43:31 10° S 19:47:01 20° SE 19:50:30 10° E visible
13 Dec - 21:22:13 10° SW 21:26:59 54° SSE 21:31:37 10° E night (unlit)
13 Dec - 23:02:36 10° W 23:07:29 82° S 23:12:08 10° E night (unlit)
14 Dec - 00:43:18 10° W 00:48:00 60° SSW 00:52:25 10° ESE night (unlit)
14 Dec - 02:24:23 10° W 02:27:58 22° SW 02:31:23 10° SSE night (unlit)
14 Dec - 19:47:16 10° SSW 19:51:22 27° SE 19:55:25 10° E visible
14 Dec - 21:26:39 10° WSW 21:31:30 65° SSE 21:36:14 10° E night (unlit)
14 Dec - 23:07:13 10° W 23:12:05 82° S 23:16:43 10° E night (unlit)
